Address 0x09409807d29d75d7fc822fe1b668f2644feeaa55

 

Overview

Balance:
0.115596138497921405 BNB

BNB Value:
$26.11 (@ $225.90/BNB)

Token:
Txn Hash
Block
From
To
Value [Txn Fee]
0xcd34ee909a47ba345dd954de9f166f204018a8a0e1299331dd36cb7f15c4bdf552446742021-02-27 13:26:501 hr 34 mins ago0x09409807d29d75d7fc822fe1b668f2644feeaa55OUT PancakeSwap: Main Staking Contract0 BNB0.00128271
0xe364f94c314c9802ce4c2e8f1b4a142d7d2d0f6d0f3df25df33bd16634381d2052446652021-02-27 13:26:231 hr 35 mins ago0x09409807d29d75d7fc822fe1b668f2644feeaa55OUT PancakeSwap: BOR0 BNB0.00044331
0x235e945ca2eca8f7a5f36d6aff48d269f1cb55b1cbe935148b9d80ca4bc3193952446552021-02-27 13:25:531 hr 35 mins ago0x09409807d29d75d7fc822fe1b668f2644feeaa55OUT PancakeSwap: Router0.399354748461158 BNB0.00169832
0x9f449ef8caca707cdc90961fb1702f96ae09581d63edd6e2a5c84fa80057709152446512021-02-27 13:25:411 hr 35 mins ago0x09409807d29d75d7fc822fe1b668f2644feeaa55OUT 0x92d7756c60dcfd4c689290e8a9f4d263b3b322410 BNB0.00025207
0x6e6b241a61f67931f13609953a8a456d440348fc42325238f7454c225265746652446432021-02-27 13:25:171 hr 36 mins ago0x09409807d29d75d7fc822fe1b668f2644feeaa55OUT 0x92d7756c60dcfd4c689290e8a9f4d263b3b322410 BNB0.00044407
0x1f7681ab47e2b9f6ec6b2fbc4c9846daf9194147b1ea329e5d0d64863bf0776052446252021-02-27 13:24:231 hr 37 mins ago0x09409807d29d75d7fc822fe1b668f2644feeaa55OUT PancakeSwap: Router0.4 BNB0.00113838
0x1d48bff1be9c5b1b07001b81797f1d2aa90f7fa7cfcb5ddb15ef3805263fb8c852445652021-02-27 13:21:231 hr 40 mins ago0xb1256d6b31e4ae87da1d56e5890c66be7f1c038e IN 0x09409807d29d75d7fc822fe1b668f2644feeaa550.8485625 BNB0.00021
0xc051db2f6fa941f788a5a3226f35f73cf17da4a4ca702e241227cb0b58073c1652440872021-02-27 12:57:282 hrs 3 mins ago0x09409807d29d75d7fc822fe1b668f2644feeaa55OUT PancakeSwap: Main Staking Contract0 BNB0.00107628
0x826e2cf03ed1e29b7ada8821e1cc5d26609895e50935caf1129c2b21f8592ff152440782021-02-27 12:57:012 hrs 4 mins ago0x09409807d29d75d7fc822fe1b668f2644feeaa55OUT PancakeSwap: Main Staking Contract0 BNB0.00107616
0xd5af01f2eee1f1ce7b27230b5c5051bb34f1eaa05fb5f972b83dfe4283f3877352440702021-02-27 12:56:372 hrs 4 mins ago0x09409807d29d75d7fc822fe1b668f2644feeaa55OUT 0xb69b6e390cba1f68442a886bc89e955048dae7e30 BNB0.0007846
0x4c2531e505db4f077e956c107f3f957695a278a43812bd3ac6047c7809d8ddc152268162021-02-26 22:32:4716 hrs 28 mins ago0x09409807d29d75d7fc822fe1b668f2644feeaa55OUT PancakeSwap: Main Staking Contract0 BNB0.00107628
0xbf429de95cec5d7e5f550467ab7ab6ec372eb3aba55fc925b82197afe120e6f352268042021-02-26 22:32:1116 hrs 29 mins ago0x09409807d29d75d7fc822fe1b668f2644feeaa55OUT PancakeSwap: Router0 BNB0.00164766
0xa3ce5d19b4ab9b2f173a1faed8f8185f04072fd1cd90096fc336624dd9a728c052267872021-02-26 22:31:2016 hrs 30 mins ago0x09409807d29d75d7fc822fe1b668f2644feeaa55OUT SushiSwap: SUSHI Token0 BNB0.00047152
0x6a7a112e60c1bd2340c6f0407d408ab1dfc50d28ff3a66f69f8a52fd8efdc22352267642021-02-26 22:30:1116 hrs 31 mins ago0x09409807d29d75d7fc822fe1b668f2644feeaa55OUT 0xb69b6e390cba1f68442a886bc89e955048dae7e30 BNB0.00024282
0x3091b6a82355ceae1539f229419b4b518b6d8839bc11d112ddea6dea42b3627052267492021-02-26 22:29:2616 hrs 32 mins ago0x09409807d29d75d7fc822fe1b668f2644feeaa55OUT 0xb69b6e390cba1f68442a886bc89e955048dae7e30 BNB0.00024282
0xa5ad172429bf3fd505bba515b03e196fb791856ea1579b2d4b76e3efd72d0f3852267412021-02-26 22:29:0216 hrs 32 mins ago0x09409807d29d75d7fc822fe1b668f2644feeaa55OUT 0xb69b6e390cba1f68442a886bc89e955048dae7e30 BNB0.00113587
0xc9945a42fe6e7805724f422740071b87469293ca7261cf124636eaf521b12a0752267102021-02-26 22:27:2916 hrs 33 mins ago0x09409807d29d75d7fc822fe1b668f2644feeaa55OUT 0xb69b6e390cba1f68442a886bc89e955048dae7e30 BNB0.00024306
0x517e3029c67d13a25b364fa75b4dd7801e859cfdc4cd4e5827ce1bc3b5a3d79b52266052021-02-26 22:22:1416 hrs 39 mins ago0x09409807d29d75d7fc822fe1b668f2644feeaa55OUT 0xb69b6e390cba1f68442a886bc89e955048dae7e30 BNB0.00024306
0x9dbc9b53f1ba857dcab7b5af69af67633b42cb1e5313616b4ed554248acbeee352261742021-02-26 22:00:2517 hrs 1 min ago0x09409807d29d75d7fc822fe1b668f2644feeaa55OUT 0xb69b6e390cba1f68442a886bc89e955048dae7e30 BNB0.00024306
0xa1bee4c3a569450f6cbdef8c9356a516ba8319789998c5adbca5c2eba1dd0f6752261562021-02-26 21:59:3117 hrs 1 min ago0x09409807d29d75d7fc822fe1b668f2644feeaa55OUT PancakeSwap: Main Staking Contract0 BNB0.00157704
0x77046d5f573c34afb76992de0b9fbc5e672d80da46b3d0078a46dddcbfb480b852261432021-02-26 21:58:5217 hrs 2 mins ago0x09409807d29d75d7fc822fe1b668f2644feeaa55OUT 0xb69b6e390cba1f68442a886bc89e955048dae7e30 BNB0.00056034
0xf01f0a3c530ba0e45286f3fb2457dd4222c43dab44b6d4c844537a71c20600f152261032021-02-26 21:56:5217 hrs 4 mins ago0x09409807d29d75d7fc822fe1b668f2644feeaa55OUT 0xb69b6e390cba1f68442a886bc89e955048dae7e30 BNB0.00024282
0x716457d36edbb54b218f5386bcc6b228f01027a480a11b56756d04a8fb7c284552260862021-02-26 21:56:0117 hrs 5 mins ago0x09409807d29d75d7fc822fe1b668f2644feeaa55OUT 0xb69b6e390cba1f68442a886bc89e955048dae7e30 BNB0.00024306
0x0f3d85285c23bb73bf0276b22a0bdad145924c9e4d53a10bbb683ef82b6f35de52260612021-02-26 21:54:4617 hrs 6 mins ago0x09409807d29d75d7fc822fe1b668f2644feeaa55OUT 0xb69b6e390cba1f68442a886bc89e955048dae7e30 BNB0.00024306
0xf351ccae21388f4ed18e71b095b9dd035961397504cbc0e1281bbae1ac84a87352260382021-02-26 21:53:3717 hrs 7 mins ago0x09409807d29d75d7fc822fe1b668f2644feeaa55OUT 0xb69b6e390cba1f68442a886bc89e955048dae7e30 BNB0.00024306
[ Download CSV Export 
Latest 8 internal transactions
Parent Txn Hash Block From To Value
0xd71c90f813a519f4f1c7d62f7b1535ce29f874792060095a61a31442e30d896b51905332021-02-25 16:11:351 day 22 hrs ago PancakeSwap: Router0x09409807d29d75d7fc822fe1b668f2644feeaa550.238327822682755565 BNB
0x00e2b765146cb07d5f5a16e9db5087de5cc09d4f803183a2206d7fdf3f8c992151905082021-02-25 16:10:121 day 22 hrs ago PancakeSwap: Router0x09409807d29d75d7fc822fe1b668f2644feeaa550.674536125045464061 BNB
0xb46dd38a949fb2dafaccf0fd693848298e60948232bb9509064ea945e6278cf351896892021-02-25 15:28:371 day 23 hrs ago PancakeSwap: Router0x09409807d29d75d7fc822fe1b668f2644feeaa550.31255927485711857 BNB
0x96300f0dcab5e83661f1113b9f98a885b73013b9fb47b7cb3b0b626c149ebfe051397992021-02-23 21:45:593 days 17 hrs ago PancakeSwap: Router0x09409807d29d75d7fc822fe1b668f2644feeaa550.000021212596737318 BNB
0xfcec4df2132c480b99bdd9380ef9fbdc3d016b0e11986d643d0665c6c39efa0351397872021-02-23 21:45:233 days 17 hrs ago PancakeSwap: Router0x09409807d29d75d7fc822fe1b668f2644feeaa550.114412347540593561 BNB
0xbd258756e380e7276f792920e5741c70fea730b4fa6206433f6aa9b14729826d51379242021-02-23 20:12:133 days 18 hrs ago PancakeSwap: Router0x09409807d29d75d7fc822fe1b668f2644feeaa550.004586743653085308 BNB
0xb4880d2063283fc9d6b90caa582e57feeb171ea6098c66ce687981f2df947d7051374692021-02-23 19:49:283 days 19 hrs ago PancakeSwap: Router0x09409807d29d75d7fc822fe1b668f2644feeaa550.05370653232007059 BNB
0x21633f17c0846d749ce58237df7c2f59d5a4178c1887e8a3104179595ce1fc0a51328992021-02-23 16:00:253 days 23 hrs ago PancakeSwap: Router0x09409807d29d75d7fc822fe1b668f2644feeaa551 wei
[ Download CSV Export 
Loading

Contract Name:
0 BNB

Compiler Version
0

Optimization Enabled:
0 BNB

Other Settings:
-NA-
Block Transaction Gas Used Reward
Age Block Fee Address BC Fee Address Voting Power Jailed Incoming
Block Uncle Number Difficulty Gas Used Reward
Loading
Loading
Make sure to use the "Vote Down" button for any spammy posts, and the "Vote Up" for interesting conversations.